SCP
0 0 0 0 0 0 0 0 0 0 0 0 0 0 0 0 0 0 0 0 0 0 0 0 0 0 0 0 0 0 0 0 0 0 0 0 0 0 0 0 0 0 0 0
0 0 0 0 0 0 0 0 0 0 0 0 0 0 0 0 0 0 0 0 0 0 0 0 0 0 0 0 0 0 0 0 0 0 0 0 0 0 0 0 0 0 0 0
0 0 0 0 0 0 0 0 0 0 0 0 0 0 0 0 0 0 0 0 0 0 0 0 0 0 0 0 0 0 0 0 0 0 0 0 0 0 0 0 0 0 0 0
0 0 0 0 0 0 0 0 0 0 0 0 0 0 0 0 0 0 0 0 0 0 0 0 0 0 0 0 0 0 0 0 0 0 0 0 0 0 0 0 0 0 0 0
0 0 0 0 0 0 0 0 0 0 0 0 0 0 0 0 0 0 0 0 0 0 0 0 0 0 0 0 0 0 0 0 0 0 0 0 0 0 0 0 0 0 0 0
0 0 0 0 0 0 0 0 0 0 0 0 0 0 0 0 0 0 0 0 0 0 0 0 0 0 0 0 0 0 0 0 0 0 0 0 0 0 0 0 0 0 0 0
0 0 0 0 0 0 0 0 0 0 0 0 0 0 0 0 0 0 0 0 0 0 0 0 0 0 0 0 0 0 0 0 0 0 0 0 0 0 0 0 0 0 0 0
0 0 0 0 0 0 0 0 0 0 0 0 0 0 0 0 0 0 0 0 0 0 0 0 0 0 0 0 0 0 0 0 0 0 0 0 0 0 0 0 0 0 0 0
0 0 0 0 0 0 0 0 0 0 0 0 0 0 0 0 0 0 0 0 0 0 0 0 0 0 0 0 0 0 0 0 0 0 0 0 0 0 0 0 0 0 0 0
0 0 0 0 0 0 0 0 0 0 0 0 0 0 0 0 0 0 0 0 0 0 0 0 0 0 0 0 0 0 0 0 0 0 0 0 0 0 0 0 0 0 0 0
0 0 0 0 0 0 0 0 0 0 0 0 0 0 0 0 0 0 0 0 0 0 0 0 0 0 0 0 0 0 0 0 0 0 0 0 0 0 0 0 0 0 0 0
0 0 0 0 0 0 0 0 0 0 0 0 0 0 0 0 0 0 0 0 0 0 0 0 0 0 0 0 0 0 0 0 0 0 0 0 0 0 0 0 0 0 0 0
0 0 0 0 0 0 0 0 0 0 0 0 0 0 0 0 0 0 0 0 0 0 0 0 0 0 0 0 0 0 0 0 0 0 0 0 0 0 0 0 0 0 0 0
0 0 0 0 0 0 0 0 0 0 0 0 0 0 0 0 0 0 0 0 0 0 0 0 0 0 0 0 0 0 0 0 0 0 0 0 0 0 0 0 0 0 0 0
0 0 0 0 0 0 0 0 0 0 0 0 0 0 0 0 0 0 0 0 0 0 0 0 0 0 0 0 0 0 0 0 0 0 0 0 0 0 0 0 0 0 0 0
0 0 0 0 0 0 0 0 0 0 0 0 0 0 0 0 0 0 0 0 0 0 0 0 0 0 0 0 0 0 0 0 0 0 0 0 0 0 0 0 0 0 0 0
0 0 0 0 0 0 0 0 0 0 0 0 0 0 0 0 0 0 0 0 0 0 0 0 0 0 0 0 0 0 0 0 0 0 0 0 0 0 0 0 0 0 0 0
0 0 0 0 0 0 0 0 0 0 0 0 0 0 0 0 0 0 0 0 0 -0 -0 0 0 0 0 0 0 0 0 0 0 0 0 0 0 0 0 0 0 0 0 0
0 0 0 0 0 0 0 0 0 0 0 0 0 0 0 0 0 0 0 0 0 0 0 0 0 0 0 0 0 0 0 0 0 0 0 0 0 0 0 0 0 0 0 0
0 0 0 0 0 0 0 0 0 0 0 0 0 0 0 0 0 0 0 0 0 0 0 0 0 0 0 0 0 0 0 0 0 0 0 0 0 0 0 0 0 0 0 0
0 0 0 0 0 0 0 0 0 0 0 0 0 0 0 0 0 0 0 0 0 0 0 0 0 0 0 0 0 0 0 0 0 0 0 0 0 0 0 0 0 0 0 0
0 0 0 0 0 0 0 0 0 0 0 0 0 0 0 0 0 0 0 0 0 0 0 0 0 0 0 0 0 0 0 0 0 0 0 0 0 0 0 0 0 0 0 0
0 0 0 0 0 0 0 0 0 0 0 0 0 0 0 0 0 0 0 0 0 0 0 0 0 0 0 0 0 0 0 0 0 0 0 0 0 0 0 0 0 0 0 0
0 0 0 0 0 0 0 0 0 0 0 0 0 0 -0 -0 -0 0 0 0 0 0 0 -0 -0 0 0 0 0 0 0 0 0 0 0 0 0 0 0 0 0 0 0 0
0 0 0 0 0 0 0 0 0 0 0 0 0 0 0 0 0 0 0 0 0 -0 -0 -0 -0 -0 0 0 0 0 0 0 -0 -0 0 -0 0 0 0 0 0 0 0 0
0 0 0 0 0 0 0 0 -0 0 0 0 0 0 0 0 0 0 0 0 0 -0 -0 -0 -0 -0 -0 0 0 0 0 -0 -0 -0 -0 -0 0 0 0 0 0 0 0 0
Wind_Speed
4 5 2 4 4 3 3 3 1 2 1 3 1 1 3 2 1 0 1 2 2 3 2 1 0 0 2 2 2 1 1 1 2 1 1 1 1 1 2 2 2 2 2 2
5 1 3 2 2 3 3 2 1 1 1 2 1 2 3 1 1 3 3 3 3 2 1 1 1 1 1 1 1 1 1 1 1 1 1 1 1 0 1 1 2 2 2 2
3 2 1 3 2 2 1 3 3 2 2 3 1 4 3 2 2 1 1 1 1 2 2 1 1 1 1 1 1 1 1 1 1 1 2 2 2 2 2 2 1 2 1 2
0 2 2 2 1 2 3 3 3 3 3 1 0 3 5 3 3 3 3 2 2 2 1 1 0 0 1 1 1 1 1 1 1 2 2 2 2 1 1 1 0 1 1 1
1 0 2 1 2 3 2 1 2 2 3 1 2 1 7 2 3 5 4 3 3 2 1 1 1 1 1 0 0 1 1 1 1 2 2 3 1 1 0 0 1 1 1 1
2 1 1 2 0 1 3 5 5 5 4 1 2 2 6 3 4 4 3 3 2 2 1 0 0 1 1 1 1 1 2 1 1 2 2 2 3 2 1 0 0 0 1 1
4 4 2 1 2 3 4 5 4 4 3 4 1 2 7 4 4 4 4 3 1 2 2 1 1 0 0 1 1 1 1 1 1 1 1 2 2 2 2 2 1 1 0 1
1 4 3 0 3 3 2 6 5 3 3 4 1 4 6 3 3 2 2 2 1 1 2 2 2 2 1 1 1 1 1 1 1 1 0 1 1 1 1 2 2 2 2 2
3 4 3 2 0 6 4 2 4 5 1 2 4 5 7 2 3 2 1 1 1 2 2 2 2 1 1 1 1 2 2 1 0 0 1 0 0 1 1 1 1 1 2 1
4 2 3 3 3 3 4 6 4 4 2 3 5 4 4 4 4 2 1 2 2 1 1 1 1 2 1 1 1 1 2 2 1 1 1 1 1 1 1 1 1 1 1 1
2 2 3 3 1 2 2 3 4 3 4 4 3 6 5 4 3 3 4 3 3 2 2 2 1 1 1 0 1 1 1 1 1 1 1 1 1 0 0 1 2 2 1 1
2 4 1 4 3 0 2 4 5 4 3 4 3 8 4 3 3 3 4 3 2 2 2 2 1 0 0 1 1 1 1 1 1 1 1 1 1 0 0 1 1 1 1 1
4 5 2 6 5 3 1 1 2 4 4 4 4 8 3 2 2 2 2 2 2 1 1 1 1 1 1 1 1 1 1 2 1 1 1 0 0 0 1 1 1 1 1 1
5 4 5 6 6 3 2 1 2 4 3 4 7 8 7 6 5 4 2 2 2 2 1 1 1 2 2 2 1 1 1 1 1 1 1 1 1 2 2 1 1 1 1 1
4 3 3 4 4 2 3 4 3 5 6 7 7 7 10 7 6 4 2 1 1 1 1 2 2 2 2 2 2 1 1 1 0 1 1 2 2 1 1 1 1 1 1 1
3 2 1 2 2 2 4 5 5 5 5 6 5 8 7 5 2 2 2 2 2 2 2 2 2 2 2 2 2 2 2 1 1 1 1 1 1 1 1 1 1 1 1 1
2 3 2 3 3 2 5 6 6 4 4 5 7 8 4 2 3 3 3 3 3 3 2 2 3 3 3 2 2 2 2 1 1 1 1 1 1 1 1 1 1 1 1 1
5 4 3 1 1 5 7 3 4 4 4 5 5 5 4 4 3 2 2 3 3 3 2 2 2 2 2 1 1 1 0 1 1 1 1 1 1 1 1 1 2 2 2 2
4 6 3 2 2 7 7 3 3 4 4 2 3 3 3 2 2 3 2 2 4 3 2 2 2 1 1 1 1 0 0 0 0 1 1 1 1 1 2 2 2 2 2 2
4 4 4 3 3 6 6 3 1 2 3 3 1 1 0 3 1 5 3 2 1 1 0 1 0 0 0 1 0 1 0 0 1 2 2 1 1 1 2 3 2 2 2 2
2 2 3 4 4 8 6 4 2 2 6 3 2 2 2 3 5 4 2 1 1 1 0 0 1 0 1 1 1 1 0 2 3 2 1 1 1 2 2 2 1 1 1 1
4 3 3 3 3 8 3 2 3 5 3 2 2 3 3 3 3 2 1 1 0 0 0 0 1 1 1 0 1 0 1 3 2 1 1 1 1 2 1 1 1 1 1 1
4 6 5 7 7 4 1 3 3 2 2 3 3 3 2 2 3 2 1 1 1 1 1 0 1 0 1 1 1 1 2 2 1 1 2 2 2 1 1 1 1 1 1 1
4 1 2 4 6 5 4 3 3 2 3 3 3 3 3 3 3 2 2 2 2 1 1 1 1 0 1 1 1 1 2 1 1 1 1 1 1 2 2 2 1 1 1 1
4 2 2 5 6 5 5 4 4 3 3 3 3 3 4 3 3 3 3 3 2 2 1 1 2 2 2 2 2 2 1 0 0 1 1 1 1 1 1 2 1 2 2 2
5 6 6 7 6 5 6 5 4 4 5 4 3 3 3 3 4 3 2 2 2 2 1 1 2 2 2 1 1 2 1 0 1 1 1 1 1 1 1 1 2 3 3 5
Wind_Direction
33 70 128 200 188 170 155 153 198 245 218 118 165 270 292 308 31 194 237 233 231 243 266 317 331 67 87 72 80 107 100 74 87 79 87 86 45 18 22 30 39 46 50 52
43 8 233 178 131 124 132 141 192 303 73 136 180 286 288 252 237 217 213 236 239 251 307 358 25 39 90 127 122 112 139 125 142 147 141 130 118 77 62 15 26 34 56 64
139 253 155 133 124 117 177 180 195 194 40 50 43 328 323 305 323 348 330 255 252 212 215 221 60 57 71 128 180 166 166 145 143 122 87 65 57 40 26 15 9 10 41 63
220 281 105 115 165 147 246 230 180 156 113 299 44 288 295 302 325 322 304 289 265 249 219 194 121 68 189 221 205 155 125 114 116 118 121 120 127 138 237 249 292 358 34 51
283 141 113 152 238 183 216 91 111 121 130 32 5 194 289 329 305 285 279 270 255 235 199 194 203 219 221 174 122 138 111 96 100 126 146 142 139 176 191 57 59 19 5 20
279 296 180 193 205 143 114 72 61 52 71 319 256 182 283 261 248 272 271 268 248 212 188 160 25 57 41 36 52 89 96 83 94 124 139 153 159 155 119 31 42 335 326 326
348 337 333 104 69 34 71 83 38 4 9 261 254 193 253 261 253 236 241 248 245 193 171 156 118 61 56 64 42 70 103 76 69 117 144 175 176 166 178 201 207 224 281 280
25 306 306 314 166 166 136 132 151 197 236 286 321 236 256 280 290 259 225 196 146 165 177 189 199 196 191 180 137 117 117 88 61 115 142 172 176 180 202 205 198 208 223 241
173 267 300 309 241 136 133 155 160 134 158 285 287 290 298 340 358 11 59 97 136 190 197 206 217 202 195 188 181 173 152 129 97 133 119 83 186 197 214 225 209 222 238 245
160 246 303 313 57 41 136 143 103 113 141 279 296 285 268 297 303 309 266 228 234 227 223 233 232 219 224 215 199 154 151 170 188 173 175 168 197 215 225 209 216 225 244 238
134 155 313 5 107 200 99 107 110 121 151 165 267 275 237 233 246 252 255 245 226 223 227 231 246 228 211 202 165 150 155 155 157 191 199 178 205 192 192 237 244 232 238 213
131 121 267 276 277 233 158 164 146 157 217 179 190 267 279 251 255 238 249 253 236 216 225 234 233 219 152 202 196 187 184 188 210 212 190 192 206 166 169 251 264 253 252 254
130 108 37 341 340 3 57 127 143 132 130 162 186 262 302 330 306 268 245 247 237 214 216 259 276 257 255 248 230 210 217 232 238 207 187 196 224 199 230 255 280 281 263 291
110 116 165 205 230 240 264 236 155 136 167 207 220 249 288 298 295 292 275 243 214 201 206 226 252 257 267 267 248 232 252 253 223 189 178 197 229 228 232 231 240 263 254 253
103 152 213 236 244 222 235 240 206 200 203 207 233 238 259 263 260 258 251 238 213 204 218 231 242 249 261 277 275 257 256 259 206 155 185 225 237 242 228 201 221 243 257 270
86 150 182 272 266 245 262 261 238 234 225 223 248 263 262 272 262 248 217 205 217 238 237 244 257 262 258 255 260 250 241 244 179 169 251 279 272 255 223 208 199 218 271 282
130 140 144 264 292 344 279 247 218 210 214 198 223 247 272 279 245 229 216 203 215 230 235 237 241 243 250 255 246 230 223 206 169 182 266 303 291 279 255 225 196 215 246 261
149 134 142 235 33 245 248 250 204 203 242 227 242 264 257 249 252 247 215 203 220 229 234 241 243 256 259 257 269 249 213 168 173 195 268 291 294 270 277 243 231 237 232 234
158 144 134 140 221 274 291 274 187 193 265 247 237 284 322 357 43 328 281 227 221 220 233 235 229 228 239 276 298 71 87 144 172 258 279 282 265 253 257 252 253 248 240 250
68 103 124 143 199 247 259 283 260 132 283 277 195 234 352 75 44 274 268 240 233 255 240 245 310 48 332 300 34 92 26 348 272 264 266 280 273 247 251 246 248 259 241 248
65 78 145 180 223 261 266 292 86 151 256 283 211 213 189 199 225 258 262 250 209 219 237 109 87 57 275 291 112 110 326 280 272 273 284 303 296 270 262 265 257 253 260 265
176 168 188 162 206 257 279 108 167 223 258 266 242 229 223 251 288 297 246 196 173 276 248 134 98 312 306 318 135 151 270 279 297 313 305 299 302 309 336 312 299 279 270 271
200 194 193 193 215 242 234 217 250 226 250 259 253 257 222 257 285 292 270 223 223 219 236 243 167 249 323 318 164 219 276 301 353 2 333 322 334 343 344 332 317 314 306 277
264 202 180 252 267 271 273 276 283 254 254 264 256 242 212 228 248 259 253 248 241 233 235 237 181 190 293 295 280 255 285 322 36 348 324 325 343 339 338 333 316 310 296 288
240 191 221 257 275 298 287 267 272 286 290 287 279 246 220 216 235 231 228 233 233 240 240 206 197 214 250 275 296 311 312 287 252 266 283 296 304 308 320 317 307 299 283 278
209 194 202 240 240 228 261 269 267 273 272 262 263 273 254 219 222 226 231 229 216 224 234 234 225 221 239 255 289 307 301 236 208 267 277 272 287 296 299 310 324 327 315 323